Wind_Speed
39 39 41 40 39 34 33 29 28 26 22 22 22 22 22 23 21 20 19 18 17 16 14 13 13 12 12 12 12 11 11 13 13 13 12 12 12 11 10 9 8 7 7
44 44 41 42 40 37 37 35 31 28 28 27 27 26 25 25 24 25 24 20 20 20 20 20 20 21 20 18 18 17 17 17 16 15 14 16 17 18 16 16 14 13 12
48 47 47 44 41 39 34 33 33 31 29 29 32 32 29 28 28 28 29 27 26 25 26 27 27 27 27 28 27 26 24 23 23 22 20 20 19 19 19 18 18 17 16
51 51 48 45 42 36 30 30 32 35 35 34 34 34 35 35 32 34 33 33 31 31 30 31 32 31 31 32 33 34 32 29 29 28 26 25 24 24 24 23 23 22 22
48 46 44 42 37 32 33 31 33 37 40 42 39 38 37 37 38 37 38 38 37 36 36 34 35 37 38 36 36 37 37 36 34 34 32 31 29 27 28 28 27 27 27
36 34 33 30 30 32 33 34 35 34 36 37 40 40 40 42 42 40 40 40 39 38 38 40 41 40 40 41 40 39 39 39 37 36 36 35 33 32 31 32 31 31 30
29 27 26 24 25 25 24 25 26 28 29 32 34 35 35 36 37 39 40 43 44 43 44 46 46 45 44 44 42 40 41 41 41 40 39 38 37 37 36 35 34 34 33
30 26 25 25 26 25 24 24 24 24 27 26 26 25 27 26 30 32 32 34 39 41 41 44 47 48 48 46 44 43 42 43 44 44 43 42 40 40 39 39 39 38 38
33 32 31 31 29 29 28 28 28 26 26 26 28 28 26 27 27 29 29 30 31 34 35 35 36 38 42 44 44 43 44 43 45 45 45 44 45 44 43 43 41 40 40
38 39 38 37 35 33 32 32 32 29 28 29 30 30 29 31 29 29 30 31 32 32 32 31 31 30 34 36 39 41 43 45 45 44 46 46 47 48 48 47 44 44 43
42 42 42 41 40 40 39 38 37 36 35 34 34 34 34 35 35 34 35 36 37 36 35 34 31 31 30 29 33 40 40 41 44 47 47 48 48 47 48 49 48 47 45
48 47 45 45 45 44 45 45 45 45 43 42 41 40 41 40 40 39 40 40 42 40 40 39 39 37 36 35 35 34 33 38 41 44 48 49 49 49 50 50 48 45 44
53 52 51 51 50 50 50 50 50 51 51 51 50 49 49 49 49 48 47 46 45 44 46 44 43 42 42 43 43 42 39 36 36 39 42 44 46 47 46 47 46 46 45
60 59 59 59 59 59 58 58 58 58 57 58 58 58 56 57 57 57 57 57 55 53 54 53 53 50 50 48 45 46 47 45 43 42 40 41 42 42 42 41 42 41 39
64 64 65 64 65 65 65 65 66 65 65 66 66 66 65 65 65 64 64 65 65 64 63 61 59 59 57 55 54 55 54 52 49 48 48 47 45 45 43 42 40 39 38
67 66 68 69 69 69 70 71 72 71 71 71 71 71 70 71 71 71 72 73 73 73 71 69 69 68 65 63 64 65 63 62 60 54 52 51 52 51 50 49 47 45 45
71 72 71 71 69 70 71 73 74 74 76 77 76 76 76 75 76 76 76 75 77 80 79 78 77 76 74 72 69 71 70 68 66 65 63 59 57 56 56 56 55 52 51
77 75 74 74 74 75 77 77 76 78 78 79 80 81 82 82 82 82 81 82 82 82 80 80 81 82 80 78 77 77 76 75 72 71 68 67 65 63 63 60 59 58 55
75 76 77 78 79 80 83 83 84 86 87 87 87 87 88 88 90 91 91 91 91 88 86 86 85 85 85 86 85 82 81 79 78 78 77 76 75 71 68 63 64 63 61
77 79 81 82 83 83 80 79 81 81 79 76 77 79 80 80 80 80 82 84 87 88 89 89 89 90 88 89 90 90 90 88 87 87 85 83 80 78 74 71 67 63 64
70 71 71 73 74 73 72 71 73 75 77 77 76 77 78 79 80 81 82 82 84 85 87 89 91 91 92 94 95 96 96 93 93 90 91 91 86 84 83 80 77 75 73
71 72 73 74 74 73 73 75 79 81 82 81 80 81 83 85 86 85 86 86 87 88 89 90 92 92 92 94 96 98 98 97 96 97 97 94 95 94 89 88 86 81 78
75 77 76 78 79 79 81 81 81 82 82 85 86 88 87 88 88 88 89 90 91 90 90 92 93 95 96 97 99 98 96 93 93 91 96 98 97 97 96 94 92 92 88
82 83 84 85 86 85 84 83 80 81 79 78 77 78 81 82 82 83 84 84 85 88 89 91 93 96 98 102 103 104 101 97 96 95 96 94 100 97 95 94 94 93 95
88 89 90 89 87 84 78 78 76 75 77 79 79 79 81 79 80 79 79 80 79 82 82 84 86 90 93 95 100 105 102 102 99 101 95 98 100 94 93 92 92 93 93
84 80 76 72 69 69 71 74 78 80 79 79 80 78 77 76 75 73 71 72 75 77 79 79 81 82 83 89 93 96 93 98 93 94 93 98 103 101 98 102 92 89 88
Wind_Direction
271 275 279 281 285 284 279 279 278 274 269 270 271 271 268 266 264 262 267 273 283 282 282 277 269 264 266 272 268 269 275 280 279 274 272 271 262 252 257 263 266 267 265
270 273 274 279 280 280 276 277 276 275 272 271 270 274 269 266 266 261 262 265 274 277 280 283 282 278 276 275 278 274 273 274 274 274 270 267 270 270 270 273 275 276 276
272 274 275 277 273 277 268 265 272 275 274 273 270 270 269 272 267 264 262 265 267 268 274 279 280 281 283 285 284 282 278 273 272 274 273 272 270 271 271 271 268 270 271
274 277 275 273 273 268 258 258 259 271 276 276 272 269 267 265 270 268 265 263 268 267 269 275 276 279 282 284 285 284 284 286 279 274 275 276 276 275 274 272 272 272 275
274 274 274 275 270 268 262 265 261 267 274 278 273 267 268 266 269 270 266 266 267 265 266 270 274 273 278 283 283 280 282 284 286 278 275 277 276 275 275 277 280 281 281
272 272 272 269 269 270 267 264 264 266 269 271 271 272 267 268 270 269 263 266 267 266 266 272 274 272 274 275 280 280 281 280 279 280 276 278 280 281 278 275 276 278 280
272 269 267 268 270 269 267 264 264 266 270 274 272 271 277 278 274 272 265 260 263 267 271 274 273 270 270 271 273 278 277 277 277 277 276 277 281 282 284 285 284 283 286
270 265 261 264 267 265 263 265 271 271 271 276 276 273 274 279 279 278 277 272 267 270 274 275 272 270 268 266 266 270 272 273 272 273 274 274 277 278 280 283 284 286 285
263 263 264 265 267 269 269 268 269 272 273 274 277 275 270 276 282 287 286 283 278 277 278 281 278 272 268 264 262 265 267 270 269 271 271 274 274 275 276 279 280 281 282
264 267 267 268 269 268 268 268 267 267 270 267 269 277 278 280 280 282 283 282 281 282 282 280 284 281 272 269 267 267 267 266 265 265 266 269 271 270 272 275 278 281 282
261 264 268 271 273 274 273 271 270 270 270 270 269 269 272 274 277 278 278 279 282 282 283 282 277 277 283 281 275 270 270 270 266 265 266 267 268 269 271 272 275 277 278
259 262 264 267 269 270 271 273 275 275 275 275 273 272 272 272 272 271 274 277 279 279 279 281 283 282 279 282 280 278 275 272 270 268 268 269 271 271 271 271 271 274 277
257 258 261 261 262 266 268 269 271 273 274 276 276 277 276 276 275 273 272 270 273 276 279 278 277 277 278 280 283 283 279 275 276 274 272 272 272 273 273 271 271 273 278
259 260 260 262 262 264 265 266 267 269 270 271 272 273 273 273 274 276 276 275 273 269 272 274 276 277 274 274 276 278 277 278 278 276 276 273 273 274 274 274 273 274 272
262 262 263 264 265 266 267 269 268 267 268 269 269 270 271 271 272 273 274 275 275 274 273 272 271 273 273 272 272 276 276 276 278 278 280 280 278 278 275 274 275 274 274
265 267 267 267 267 268 269 270 271 271 270 270 270 270 271 273 274 274 275 275 275 273 272 271 273 274 273 272 271 274 274 275 275 273 273 275 279 281 280 279 277 276 276
267 268 269 269 268 270 271 272 272 272 273 272 273 272 270 272 272 273 274 273 274 274 274 274 273 272 272 272 272 274 274 274 275 276 275 273 273 274 276 278 276 274 272
271 271 270 269 270 272 274 274 274 274 274 275 275 275 274 273 272 272 272 272 271 272 273 273 271 271 271 270 271 272 273 274 273 273 273 272 273 271 270 270 272 274 273
271 272 272 271 273 275 276 276 275 275 276 276 276 275 274 273 273 273 272 272 272 270 270 269 269 267 267 268 268 268 268 268 268 270 272 271 270 269 267 267 268 267 269
272 272 273 273 273 275 275 275 275 274 274 274 274 274 274 275 274 273 271 271 271 270 269 269 267 266 266 265 264 265 266 266 267 267 268 268 268 268 266 263 264 264 265
271 271 272 274 275 275 275 277 277 276 275 275 275 275 275 274 273 273 271 270 269 269 268 267 267 265 264 264 264 265 265 265 265 265 264 263 263 263 264 265 265 263 263
274 274 276 279 280 279 277 279 280 280 280 279 277 277 275 273 271 270 269 268 268 268 269 268 268 267 266 265 264 264 263 262 260 260 262 261 261 261 261 262 263 264 263
280 282 282 281 280 280 281 282 283 284 284 282 278 275 275 274 273 272 272 272 272 271 269 268 269 269 268 267 266 264 263 262 260 259 258 259 259 259 259 259 261 262 261
277 278 279 281 282 283 283 283 284 283 280 277 276 275 274 275 274 274 274 274 272 270 269 270 269 267 266 266 267 268 267 266 263 262 259 258 256 257 258 257 256 258 260
278 279 279 280 282 284 284 284 281 280 278 278 277 276 276 276 275 275 273 272 272 271 271 271 270 269 269 268 268 269 271 269 266 263 260 257 257 255 256 257 254 254 255
277 279 281 282 281 279 278 279 279 278 277 276 276 276 274 274 274 272 272 271 271 271 271 272 271 272 271 269 270 271 271 269 267 262 259 256 256 254 253 253 254 252 253
Height
10896 10897 10897 10897 10898 10898 10898 10899 10900 10901 10902 10903 10903 10904 10905 10905 10905 10906 10906 10905 10905 10905 10905 10904 10904 10904 10903 10903 10902 10902 10901 10901 10900 10900 10900 10900 10899 10898 10897 10897 10896 10896 10895
10891 10893 10894 10893 10893 10894 10895 10894 10895 10896 10897 10898 10899 10899 10900 10901 10901 10902 10902 10902 10902 10901 10901 10901 10900 10901 10901 10901 10900 10900 10899 10898 10897 10897 10897 10897 10896 10896 10895 10895 10894 10894 10894
10885 10886 10887 10888 10889 10888 10890 10890 10889 10890 10891 10892 10893 10894 10895 10895 10896 10898 10898 10898 10898 10898 10897 10897 10896 10896 10897 10897 10897 10896 10895 10895 10894 10894 10894 10894 10894 10893 10892 10892 10891 10890 10890
10878 10879 10879 10879 10881 10883 10884 10885 10885 10884 10885 10886 10887 10888 10889 10890 10891 10892 10892 10893 10894 10893 10893 10892 10892 10892 10892 10892 10892 10891 10891 10891 10890 10889 10889 10889 10889 10889 10888 10888 10887 10887 10886
10871 10871 10871 10872 10874 10877 10879 10879 10880 10879 10879 10879 10880 10881 10883 10883 10884 10885 10886 10886 10887 10887 10887 10887 10887 10887 10886 10886 10886 10885 10885 10885 10885 10885 10884 10884 10884 10884 10883 10882 10882 10882 10881
10865 10865 10866 10866 10868 10870 10872 10873 10874 10874 10873 10873 10873 10874 10875 10876 10876 10878 10878 10879 10880 10880 10880 10881 10880 10880 10880 10880 10879 10879 10879 10879 10879 10879 10879 10879 10878 10878 10878 10877 10877 10876 10876
10859 10860 10860 10861 10863 10864 10865 10865 10866 10867 10867 10867 10867 10868 10867 10868 10868 10869 10870 10871 10872 10872 10873 10873 10873 10872 10873 10873 10873 10872 10872 10872 10872 10872 10872 10872 10872 10872 10871 10871 10870 10870 10869
10853 10853 10854 10856 10857 10858 10859 10860 10861 10862 10862 10861 10862 10863 10864 10863 10862 10862 10863 10863 10864 10865 10865 10864 10863 10863 10863 10864 10865 10865 10865 10864 10865 10865 10865 10865 10865 10865 10864 10864 10864 10863 10862
10846 10847 10849 10851 10852 10853 10854 10855 10856 10856 10857 10857 10857 10858 10858 10857 10858 10857 10857 10857 10858 10858 10858 10856 10854 10853 10854 10854 10856 10857 10857 10856 10856 10857 10857 10857 10857 10857 10857 10856 10856 10856 10855
10840 10842 10843 10844 10845 10847 10848 10849 10849 10850 10850 10851 10851 10851 10851 10851 10852 10851 10851 10851 10851 10851 10851 10850 10848 10846 10846 10846 10846 10847 10847 10847 10847 10847 10848 10848 10848 10849 10849 10848 10848 10848 10847
10833 10834 10836 10837 10839 10839 10840 10841 10841 10842 10843 10843 10844 10845 10845 10844 10844 10844 10844 10844 10843 10843 10843 10843 10843 10841 10840 10840 10839 10839 10839 10838 10838 10838 10838 10839 10839 10839 10839 10840 10840 10839 10838
10827 10828 10830 10830 10830 10831 10831 10831 10832 10834 10834 10835 10836 10837 10837 10837 10837 10837 10836 10835 10835 10835 10834 10834 10834 10835 10834 10833 10832 10831 10831 10830 10830 10829 10829 10829 10829 10829 10829 10830 10830 10830 10829
10821 10822 10822 10822 10822 10822 10823 10823 10824 10824 10824 10825 10826 10826 10826 10826 10827 10827 10828 10828 10826 10825 10825 10825 10825 10825 10826 10825 10824 10822 10821 10822 10821 10821 10820 10820 10820 10819 10818 10819 10820 10820 10819
10810 10812 10813 10813 10813 10813 10814 10813 10814 10814 10814 10814 10814 10815 10816 10815 10815 10815 10815 10815 10816 10816 10815 10815 10815 10815 10815 10816 10815 10813 10811 10811 10812 10811 10810 10810 10810 10810 10809 10809 10810 10810 10809
10799 10801 10801 10802 10802 10802 10802 10802 10801 10802 10803 10802 10802 10803 10804 10803 10803 10803 10802 10802 10802 10802 10802 10802 10803 10803 10804 10803 10803 10802 10800 10799 10800 10801 10800 10799 10799 10799 10799 10800 10800 10800 10800
10787 10788 10789 10790 10790 10789 10788 10788 10787 10788 10788 10788 10788 10789 10789 10789 10788 10788 10787 10787 10786 10785 10786 10788 10788 10789 10790 10790 10790 10789 10788 10787 10786 10788 10789 10789 10788 10788 10788 10789 10789 10789 10789
10772 10773 10774 10774 10775 10775 10774 10774 10773 10772 10772 10771 10771 10772 10773 10774 10772 10771 10771 10770 10768 10767 10769 10770 10771 10771 10772 10772 10774 10773 10772 10772 10773 10772 10774 10776 10777 10776 10776 10777 10777 10778 10778
10758 10759 10759 10759 10759 10759 10759 10758 10757 10756 10756 10755 10753 10752 10752 10753 10754 10753 10753 10752 10750 10750 10750 10751 10750 10752 10752 10753 10754 10753 10755 10756 10756 10756 10758 10760 10762 10763 10764 10764 10764 10764 10765
10742 10741 10742 10744 10742 10741 10740 10740 10739 10738 10737 10736 10734 10733 10733 10733 10732 10731 10729 10728 10726 10728 10730 10728 10728 10729 10731 10732 10733 10733 10734 10737 10737 10738 10741 10742 10743 10745 10748 10749 10749 10751 10752
10728 10727 10725 10725 10724 10724 10722 10721 10718 10716 10715 10714 10714 10712 10710 10709 10708 10709 10709 10706 10704 10704 10703 10703 10705 10705 10709 10708 10708 10711 10711 10714 10716 10718 10719 10721 10723 10724 10727 10730 10732 10735 10736
10712 10711 10710 10707 10707 10706 10704 10704 10699 10696 10694 10693 10692 10691 10689 10688 10686 10686 10685 10685 10682 10681 10680 10678 10677 10681 10684 10683 10682 10685 10686 10691 10693 10696 10696 10697 10700 10702 10703 10708 10713 10717 10720
10696 10695 10694 10691 10690 10690 10687 10686 10682 10676 10673 10672 10670 10669 10667 10665 10662 10661 10661 10661 10660 10658 10656 10654 10652 10653 10656 10656 10657 10655 10662 10666 10670 10668 10668 10672 10676 10678 10684 10687 10690 10694 10698
10681 10680 10678 10674 10670 10669 10667 10664 10661 10657 10653 10648 10645 10642 10642 10641 10640 10639 10638 10636 10635 10635 10634 10631 10631 10630 10630 10627 10623 10625 10631 10637 10638 10644 10645 10647 10650 10653 10661 10666 10670 10672 10675
10664 10662 10660 10656 10652 10649 10646 10643 10639 10634 10629 10626 10622 10620 10619 10617 10615 10614 10613 10611 10610 10608 10607 10607 10605 10604 10602 10600 10596 10593 10600 10608 10612 10617 10618 10624 10623 10630 10635 10642 10646 10649 10652
10646 10644 10641 10638 10634 10631 10627 10622 10616 10613 10610 10605 10603 10601 10598 10595 10593 10591 10590 10588 10587 10585 10585 10583 10581 10578 10577 10576 10573 10569 10570 10573 10582 10584 10595 10595 10593 10609 10611 10615 10619 10626 10631
10630 10627 10624 10620 10616 10612 10608 10603 10598 10592 10588 10585 10581 10580 10576 10573 10570 10569 10568 10566 10565 10563 10562 10559 10556 10554 10552 10549 10548 10544 10543 10538 10547 10547 10558 10568 10568 10578 10584 10583 10595 10604 10609